Content
SEND FEEDBACK

Daily
Averages
Monthly
Summary
United States of America

SILER CITY, NORTH CAROLINA


Home > North America > United States > North Carolina
Elevation: 634 feet     Latitude: 35 42N     Longitude: 079 29W

WEATHER
 
SELECT A DAY
Number of Records: 306,591;   Date Range: 3/28/01 - 9/21/14
 
SHARE

PRINT THIS DATA

[ ← Previous Day ]
WEATHER ALMANAC - JANUARY 31, 2013
[ Next Day → ]
[ °C ]   °F
Weather ElementAverageHighLow
Temperature46.3 °F58.8 °F (12:35 am)29.1 °F (11:15 pm)
Dewpoint29.6 °F54.5 °F (12:35 am)17.8 °F (4:15 pm)
Humidity56.5 %88 % (1:15 am)27 % (4:15 pm)
Barometer29.82 in30.03 in (10:35 pm)29.52 in (1:15 am)
Wind Speed11 mph23 mph (2:35 am)
Wind Gust32.2 mph (12:55 am)
Weather ElementAverage
Visibility10 mi
Wind DirectionSSW (207.5 °)

Weather ElementTotal
Precipitation0.21 in
Heating Degree Days21.1 (Base 65)
Averaged from 69 records on January 31, 2013
WEATHER CONDITIONS BREAKOUT
WIND DIRECTION BREAKOUT
WEATHER BY HOUR - JANUARY 31, 2013
[ °C ]   °F
Local TimeTemperatureDewpointHumidityBarometerVisibilityWind DirectionWind SpeedGust SpeedPrecipitationEventsConditions
12:35 AM58.8 °F54.5 °F86 %29.53 in10.0 miWSW (240°)13.8 mph25.3 mphRainRain
12:55 AM56.7 °F52.9 °F87 %29.54 in10.0 miSW (230°)15.0 mph32.2 mph0.02 inRainLight Rain
1:15 AM54.0 °F50.5 °F88 %29.52 in7.0 miSW (220°)13.8 mph23.0 mph0.03 inRainLight Rain
1:35 AM53.8 °F50.2 °F88 %29.53 in10.0 miSW (220°)15.0 mph25.3 mph0.04 inOvercast
1:55 AM53.6 °F49.1 °F85 %29.53 in10.0 miSW (220°)18.4 mph26.5 mph0.04 inOvercast
2:15 AM53.1 °F47.8 °F82 %29.54 in10.0 miSW (220°)19.6 mph29.9 mphOvercast
2:35 AM52.9 °F46.8 °F80 %29.53 in10.0 miSSW (210°)23.0 mph31.1 mphOvercast
2:55 AM52.3 °F45.9 °F79 %29.54 in10.0 miSW (220°)17.3 mph26.5 mphScattered Clouds
3:15 AM52.3 °F46.0 °F79 %29.55 in10.0 miSW (220°)18.4 mph24.2 mphMostly Cloudy
3:35 AM52.2 °F45.9 °F79 %29.55 in10.0 miSW (220°)15.0 mph26.5 mphOvercast
3:55 AM52.2 °F45.5 °F78 %29.56 in10.0 miSW (220°)15.0 mph24.2 mphOvercast
4:15 AM52.2 °F44.8 °F76 %29.58 in10.0 miSW (230°)16.1 mph29.9 mphOvercast
4:35 AM52.0 °F44.2 °F75 %29.59 in10.0 miSW (230°)12.7 mph23.0 mphOvercast
4:55 AM51.8 °F43.7 °F74 %29.60 in10.0 miSW (230°)15.0 mph27.6 mphOvercast
5:15 AM51.4 °F43.9 °F75 %29.63 in10.0 miWest (260°)17.3 mph23.0 mph0.01 inRainRain
5:35 AM48.4 °F42.6 °F80 %29.64 in10.0 miWest (260°)11.5 mph21.9 mph0.02 inRainLight Rain
5:55 AM48.0 °F42.6 °F82 %29.65 in10.0 miWSW (250°)9.2 mph0.02 inLight Drizzle
6:15 AM48.2 °F40.6 °F75 %29.66 in10.0 miWSW (250°)9.2 mph0.01 inOvercast
6:35 AM48.4 °F38.1 °F68 %29.68 in10.0 miWSW (250°)10.4 mph16.1 mph0.01 inOvercast
6:55 AM48.6 °F35.6 °F61 %29.70 in10.0 miWSW (250°)10.4 mph20.7 mph0.01 inOvercast
7:15 AM47.7 °F33.4 °F58 %29.72 in10.0 miWSW (250°)11.5 mph19.6 mphScattered Clouds
7:55 AM46.4 °F30.4 °F54 %29.77 in10.0 miWest (270°)13.8 mph18.4 mphClear
8:15 AM46.4 °F30.0 °F53 %29.79 in10.0 miWest (280°)9.2 mph19.6 mphClear
8:35 AM45.7 °F25.2 °F45 %29.81 in10.0 miWest (280°)19.6 mph31.1 mphClear
9:15 AM45.7 °F26.4 °F47 %29.84 in10.0 miWest (270°)15.0 mph25.3 mphClear
9:35 AM45.9 °F26.1 °F46 %29.85 in10.0 miWest (270°)11.5 mph27.6 mphClear
9:55 AM46.0 °F25.5 °F45 %29.86 in10.0 miWest (280°)15.0 mph25.3 mphClear
10:15 AM46.4 °F24.1 °F42 %29.87 in10.0 miWest (260°)13.8 mph27.6 mphClear
10:35 AM46.4 °F21.6 °F37 %29.88 in10.0 miWest (280°)19.6 mph28.8 mphClear
10:55 AM46.8 °F23.4 °F40 %29.88 in10.0 miWSW (250°)17.3 mph28.8 mphClear
11:15 AM47.7 °F24.4 °F40 %29.89 in10.0 miWest (270°)11.5 mph25.3 mphClear
11:35 AM48.4 °F25.2 °F40 %29.88 in10.0 miWest (280°)16.1 mph23.0 mphClear
11:55 AM48.7 °F23.2 °F37 %29.88 in10.0 miWest (280°)15.0 mph23.0 mphClear
12:15 PM49.3 °F22.3 °F35 %29.88 in10.0 miWSW (250°)15.0 mph24.2 mphClear
12:35 PM50.0 °F22.1 °F33 %29.87 in10.0 miWest (270°)13.8 mph23.0 mphClear
12:55 PM50.0 °F19.9 °F31 %29.87 in10.0 miWest (280°)17.3 mph28.8 mphClear
1:15 PM49.5 °F19.6 °F31 %29.86 in10.0 miWSW (250°)17.3 mph24.2 mphClear
1:35 PM50.0 °F20.3 °F31 %29.87 in10.0 miWest (270°)17.3 mph26.5 mphClear
1:55 PM50.4 °F18.9 °F29 %29.87 in10.0 miWNW (290°)10.4 mph23.0 mphClear
2:15 PM50.4 °F20.3 °F31 %29.87 in10.0 miWest (270°)15.0 mph26.5 mphClear
2:35 PM50.9 °F19.2 °F29 %29.88 in10.0 miWest (280°)16.1 mph25.3 mphClear
2:55 PM50.9 °F20.3 °F30 %29.88 in10.0 miWest (260°)12.7 mph23.0 mphClear
3:15 PM51.1 °F19.4 °F29 %29.89 in10.0 miWest (260°)18.4 mph26.5 mphClear
3:35 PM50.7 °F18.5 °F28 %29.90 in10.0 miWest (280°)10.4 mph21.9 mphScattered Clouds
3:55 PM50.9 °F18.9 °F28 %29.91 in10.0 miWest (280°)12.7 mph26.5 mphScattered Clouds
4:15 PM50.5 °F17.8 °F27 %29.92 in10.0 miWest (270°)16.1 mph25.3 mphClear
4:35 PM50.2 °F19.0 °F29 %29.93 in10.0 miWest (280°)17.3 mph23.0 mphClear
4:55 PM49.6 °F19.2 °F30 %29.94 in10.0 miWest (260°)15.0 mph24.2 mphClear
5:15 PM49.1 °F19.4 °F31 %29.94 in10.0 miWest (260°)15.0 mph21.9 mphClear
5:35 PM48.2 °F19.6 °F32 %29.94 in10.0 miWest (260°)8.1 mph16.1 mphClear
5:55 PM46.9 °F20.1 °F35 %29.95 in10.0 miWest (260°)6.9 mphClear
6:15 PM45.9 °F20.8 °F37 %29.96 in10.0 miWest (270°)3.5 mphClear
6:35 PM45.0 °F21.4 °F39 %29.98 in10.0 miWest (260°)3.5 mphClear
6:55 PM44.8 °F21.0 °F39 %29.99 in10.0 miWest (280°)4.6 mphClear
7:15 PM44.6 °F20.8 °F39 %29.99 in10.0 miWest (260°)5.8 mphClear
7:35 PM43.3 °F21.4 °F42 %30.01 in10.0 miWSW (250°)3.5 mphClear
7:55 PM42.8 °F21.2 °F42 %30.01 in10.0 miCalmClear
8:15 PM36.0 °F26.8 °F69 %30.01 in10.0 miCalmClear
8:35 PM34.2 °F26.4 °F73 %30.01 in10.0 miCalmClear
8:55 PM34.7 °F26.8 °F73 %30.02 in10.0 miCalmClear
9:15 PM32.7 °F26.1 °F76 %30.02 in10.0 miCalmClear
9:35 PM32.0 °F25.7 °F78 %30.02 in10.0 miCalmClear
9:55 PM30.9 °F25.2 °F79 %30.01 in10.0 miCalmClear
10:15 PM31.5 °F26.1 °F80 %30.02 in10.0 miCalmClear
10:35 PM30.0 °F25.5 °F83 %30.03 in10.0 miCalmClear
10:55 PM29.7 °F25.3 °F84 %30.02 in10.0 miCalmClear
11:15 PM29.1 °F25.9 °F88 %30.03 in10.0 miCalmClear
11:35 PM29.7 °F25.2 °F83 %30.03 in10.0 miCalmClear
11:55 PM29.3 °F25.5 °F86 %30.02 in10.0 miCalmClear
Hourly data recorded from KTTA, located miles away from Siler City, North Carolina







STORIES FROM OUR PARTNERS